Terminal Aerodrome Forecast
Issued by NWS

Home | Current Version | Previous Version | Text Only | Print | Product List | Glossary On
Versions: 1 2 3 4 5 6 7 8 9 10 11 12 13 14 15 16 17 18 19 20 21 22 23 24 25 26 27 28 29 30 31 32 33 34 35 36 37 38 39 40 41 42
000
FTUS44 KHGX 032344
TAFLBX
TAF
KLBX 032344Z 0400/0424 16009KT P6SM FEW030 FEW040 BKN060
     FM040900 17003KT 5SM BR SCT250
     FM041100 18004KT P6SM VCSH SCT020 BKN030
     FM041800 18011KT P6SM SCT040=

USA.gov is the U.S. government's official web portal to all federal, state and local government web resources and services.